Location: Newark
(11.2914°S, 14.4718°E)
Time: 19:34:58
(UTC+00:00)

SR - Visible Passes

Search period start: 17 September 2019 00:00
Search period end: 27 September 2019 00:00
Orbit: 576 x 880 km, 66.7° (Epoch: 16 September)

Date Brightness Start Highest point End Pass type
(mag) Time Alt. Az. Time Alt. Az. Time Alt. Az.
17 Sep ? 03:30:04 41° SSW 03:31:30 86° WNW 03:35:47 10° NNE visible
18 Sep ? 02:43:43 22° ENE 02:43:43 22° ENE 02:45:41 10° NE visible
18 Sep ? 04:23:21 10° WNW 04:23:36 10° WNW 04:23:51 10° WNW visible
19 Sep ? 03:36:41 17° NNW 03:36:41 17° NNW 03:37:52 10° N visible
